This is the latest recevied weather packets stored in our database for station/object EA1IRT-1. If no packets are shown the sender has not sent any weather packets the latest 10 day(s).
| Time | Temp. | Humidity | Pressure | Rain* | Wind** | Luminosity | Snow |
|---|---|---|---|---|---|---|---|
| 1777937633 | 11.11° C | 95% | 1015.8 hPa | - | - | - | - |
| 1777936711 | 11.11° C | 93% | 1015.9 hPa | - | - | - | - |
| 1777935817 | 11.11° C | 90% | 1015.9 hPa | - | - | - | - |
| 1777934917 | 11.67° C | 90% | 1016 hPa | - | - | - | - |
| 1777934010 | 11.67° C | 91% | 1016 hPa | - | - | - | - |
| 1777933110 | 11.67° C | 91% | 1016 hPa | - | - | - | - |
| 1777932210 | 11.67° C | 91% | 1016 hPa | - | - | - | - |
| 1777931317 | 11.67° C | 89% | 1016.2 hPa | - | - | - | - |
| 1777930410 | 12.22° C | 89% | 1016.2 hPa | - | - | - | - |
| 1777929516 | 12.22° C | 91% | 1016.3 hPa | - | - | - | - |
| 1777928610 | 12.22° C | 93% | 1016.2 hPa | - | - | - | - |
| 1777927708 | 12.22° C | 92% | 1016 hPa | - | - | - | - |
| 1777926783 | 12.22° C | 94% | 1016 hPa | - | - | - | - |
| 1777925856 | 12.22° C | 98% | 1015.9 hPa | - | - | - | - |
| 1777924956 | 12.22° C | 100% | 1015.7 hPa | - | - | - | - |
| 1777924055 | 12.22° C | 97% | 1015.4 hPa | - | - | - | - |
| 1777923155 | 12.78° C | 96% | 1015.2 hPa | - | - | - | - |
| 1777922255 | 13.33° C | 97% | 1015.2 hPa | - | - | - | - |
| 1777921355 | 13.33° C | 100% | 1015.3 hPa | - | - | - | - |
| 1777920455 | 13.33° C | 99% | 1015.2 hPa | - | - | - | - |
| 1777919555 | 13.33° C | 96% | 1015.2 hPa | - | - | - | - |
| 1777918655 | 13.89° C | 96% | 1015.1 hPa | - | - | - | - |
| 1777917755 | 13.33° C | 97% | 1015.2 hPa | - | - | - | - |
| 1777916855 | 13.33° C | 98% | 1015.2 hPa | - | - | - | - |
| 1777915952 | 13.33° C | 95% | 1015.3 hPa | - | - | - | - |
* Rain since midnight (hover to see other rain measurements)
** Current wind speed in m/s (hover to see current wind gust speed)